ATLAS AGENA B DEB, 3132

Orbit data source: Space-Track

ATLAS AGENA B DEB, 3132 is space debris in LEO originally from a launch on Fri, 19 Jul 1963 UTC launched from the Air Force Western Test Range (AFWTR). Debris objects in space refer to the collection of defunct objects orbiting the Earth. Examples of debris include non-operational satellites, rocket bodies, and fragments generated from explosions, collisions, or faulty payload assembly.

Loading next visibility...
ATLAS AGENA B DEB details
Identifier
3132, 1963-030G
Orbit
LEO
Last TLE update2 weeks ago
Origin
Flag of USUSAF SSD (US)
ManufacturerUnknown
MissionSpacecraft
Bus & MotorUnknown
MassUnknown
Launch date (UTC)
1963-07-19 (62 years ago)
Launch vehicleUnknown
Launch site
Air Force Western Test Range (AFWTR)
Object type
Payload
Rocket body
Debris
Shape & HBRUnknown
Radar Cross SectionMedium (>0.1 m² and <1 m²)

Expand to show TLE details & history

TLE from 2 weeks ago
0 ATLAS AGENA B DEB
1 03132U 63030G   25029.99320937  .00000017  00000-0  75121-2 0  9997
2 03132  88.3951 239.5061 0101998 198.7769 160.9304  8.57866440416716
Epoch: 2025-01-29T23:50Z
Definitive object data (Epoch: 2025-01-29T23:50:13.289Z)
Latitude-0.00002°
Longitude112.47408°
Altitude3,801.215 km
Speed6.228 km/s
True Right ascension15h 58m 01s
True Declination0° 00' 00"
Sunlit
Object was in daylight at TLE epoch
Visualization TLE readout
Latitude66.52374°
Longitude115.32485°
Altitude3,759.747 km
Speed6.261 km/s
Apparent Right ascension12h 55m 29s
Apparent Declination38° 33' 14"
Sunlit
Object is in daylight
Visualization observer readout
Local Sidereal Time22:22:40
Azimuth330.997° NNW
Elevation-4.096°
Doppler factor1
Orbital elements
Apogee altitude3,802.361 km
Perigee altitude3,596.78 km
Semi-major axis10,077.707 km
Eccentricity0.0101998
Inclination88.3951°
RAAN239.5061°
Arg. of periapsis198.7769°
True anomaly161.30772°
Mean anomaly160.9304°
Eccentric anomaly161.11951°
Mean motion2.14536 °/min
BSTAR0.0075121
Orbital period167.8 mins
Loading maneuver chart data...
Loading historical data...
Loading historical data...
Loading historical data...
Loading historical data...
Loading historical data...
Loading historical data...
Loading historical data...

ATLAS AGENA B DEB Visibility forecast

Observer location: undefined°, undefined

Span
Click to sort rows by Start time (UTC) header in descending order
Start Az.
Max El. time (UTC)
Max El. Az.
Max El.
End time (UTC)
End Az.
32 mins2025-02-13 22:50:46.355Z8.061° NNE2025-02-13 23:07:46.355Z73.911° E29.912°2025-02-13 23:22:46.355Z132.2° SE
34 mins2025-02-14 01:39:46.355Z355.34° N2025-02-14 01:56:46.355Z273.815° WNW42.663°2025-02-14 02:13:46.355Z202.644° SW
13 mins2025-02-14 04:31:46.355Z332.091° NNW2025-02-14 04:37:46.355Z311.537° NW14.093°2025-02-14 04:44:46.355Z287.591° WNW
11 mins2025-02-14 09:36:46.355Z61.815° ENE2025-02-14 09:41:46.355Z45.555° ENE12.291°2025-02-14 09:47:46.355Z26.147° NE
36 mins2025-02-14 12:04:46.355Z150.89° SSE2025-02-14 12:22:46.355Z73.621° E41.141°2025-02-14 12:40:46.355Z4.612° NNE
34 mins2025-02-14 14:53:46.355Z219.815° SW2025-02-14 15:10:46.355Z285.785° WNW33.307°2025-02-14 15:27:46.355Z352.248° N
|